Voltar ao catálogo

STARLINK-31798

AtivoComunicaçõesVLEO
NORAD 59635·PAYLOAD·🇺🇸 United States

Lançado May 3, 2024 de Cape Canaveral Space Force Station

Loading…

Próximas Passagens (próximas 24 horas)

TLE

AtualizadoSource: CelesTrak SupGP

Época: Sep 15, 2026, 02:01 UTC

1 59635C 24082E   26258.08451389  .00010018  00000+0  36289-3 0  2583
2 59635  43.0020 150.5559 0001415 273.4961  78.5150 15.27570442    16

Acompanhe STARLINK-31798 em tempo real com AllMySat

Download on the App Store